Memmingen Allgau Airport EDJA

Flugplatz Daten

Name: Memmingen Allgau Airport

Ident: EDJA

Lat: 47,98880005

Long: 10,23950005

Platzhöhe: 2077 ft

IataCode: FMM

City: Memmingen

Metar

2022/08/10 18:20
EDJA 101820Z 06008KT CAVOK 21/08 Q1021

Taf

Gewünschte Webcam nicht vorhanden? Dann fügen Sie eine hinzu. Sie wird dann so schnell wie möglich freigeschaltet
Url: Title: